Regional Weather Roundup
Issued by NWS

Home | Current Version | Previous Version | Text Only | Print | Product List | Glossary Off
Versions: 1 2 3 4 5 6 7 8 9 10 11 12 13 14 15 16 17 18 19 20 21 22 23 24 25 26 27 28 29 30 31 32 33 34 35 36 37 38 39 40 41 42 43 44 45 46 47 48 49 50

000
ASUS43 KIND 260959
RWRIN

WEATHER ROUNDUP FOR INDIANA
NATIONAL WEATHER SERVICE INDIANAPOLIS IN
600 AM EDT TUE MAY 26 2015

NOTE: "FAIR" INDICATES FEW OR NO CLOUDS BELOW 12,000 FEET WITH NO
SIGNIFICANT WEATHER AND/OR OBSTRUCTIONS TO VISIBILITY.

* - STATION DOES NOT REPORT WEATHER SUCH AS PRECIPITATION OR FOG.

+ - STATION NOT QUALITY CONTROLLED BY THE NATIONAL WEATHER SERVICE.
    USE DATA WITH CAUTION...ESPECIALLY DEWPOINT AND RELATIVE
    HUMIDITY OBSERVATIONS.

INZ001>003-010>013-019-020-261100-
NORTHWEST INDIANA

CITY           SKY/WX    TMP DP  RH WIND       PRES   REMARKS
GARY /AIRPORT/ MOCLDY    68  66  94 S13       29.96R
RENSSELAER +   CLOUDY    66  64  94 S13       30.00R

$$

LMZ046-743>745-261100-
SOUTHERN LAKE MICHIGAN

STATION/POSITION TIME  TEMP    WIND        PRES    WAVE
                       AIR SEA DIR/SP/G            HT
                 (UTC) (F)     (DEG/KT/KT) (MB)    (FT)
BURNS HARBOR     0900   67     180/ 11/ 18 1014.9S
MICHIGAN CITY    0900   67     140/  8/ 12   N/A
5NW MICH CITY    0900   61 52  180/  6/  8   N/A     1

$$

INZ004-005-014>016-021>024-261100-
NORTH CENTRAL INDIANA

CITY           SKY/WX    TMP DP  RH WIND       PRES   REMARKS
GOSHEN         CLOUDY    65  63  93 S7        30.01R
SOUTH BEND     CLOUDY    67  64  90 S7        30.00R

$$

INZ006>009-017-018-025>027-261100-
NORTHEAST INDIANA

CITY           SKY/WX    TMP DP  RH WIND       PRES   REMARKS
ANGOLA *+      MOCLDY    63  63 100 S5        30.03F
FORT WAYNE     PTCLDY    62  60  93 S7        30.04F

$$

INZ028-029-035-036-043>045-051>053-261100-
WEST CENTRAL INDIANA

CITY           SKY/WX    TMP DP  RH WIND       PRES   REMARKS
CRAWFORDSVL +  CLOUDY    65  61  87 SE9       30.02S
GREENCASTLE +  CLOUDY    64  61  88 S8        30.03F
LAFAYETTE      CLOUDY    66  64  93 S6        30.01R
TERRE HAUTE    CLOUDY    69  66  90 S12       30.01F

$$

INZ030>032-037>040-046>048-054>057-064-065-261100-
CENTRAL INDIANA

CITY           SKY/WX    TMP DP  RH WIND       PRES   REMARKS
GREENWOOD *+   CLOUDY    68  63  83 SE5       30.05F
INDIANAPOLIS   CLOUDY    67  64  90 S7        30.03S
-EAGLE CREEK   CLOUDY    67  64  90 SE8       30.04S
KOKOMO *+      CLOUDY    66  63  88 S15       30.04R
MT COMFORT *+  CLOUDY    66 N/A N/A S10       30.06S
SHELBYVILLE    CLOUDY    69  65  86 S9        30.05F

$$

INZ033-034-041-042-049-050-058-059-261100-
EAST CENTRAL INDIANA

CITY           SKY/WX    TMP DP  RH WIND       PRES   REMARKS
MUNCIE         CLOUDY    68  64  87 S13G21    30.06R

$$

INZ060-061-067>069-081>083-085>088-261100-
SOUTHWEST INDIANA

CITY           SKY/WX    TMP DP  RH WIND       PRES   REMARKS
EVANSVILLE     CLOUDY    69  65  86 S10       30.02F
HUNTINGBURG *+ CLOUDY    66  63  88 S7        30.04S

$$

INZ062-063-066-070>080-084-089>092-261100-
SOUTH CENTRAL AND SOUTHEAST INDIANA

CITY           SKY/WX    TMP DP  RH WIND       PRES   REMARKS
BLOOMINGTON    CLOUDY    67  65  93 S7        30.04S
MADISON *+     MOCLDY    64  63  94 S5        30.10S
SEYMOUR +      CLOUDY    66  64  94 SE5       30.06S

$$



USA.gov is the U.S. government's official web portal to all federal, state and local government web resources and services.